Location: Châteauvieux
(47.2310°N, 1.3828°E)
Time: 22:51:51
(UTC+00:00)

Cosmos 1271 Rocket - Pass Details

Date: 15 May 2026
Orbit: 421 x 448 km, 81.2° (Epoch: 6 June)

Event Time Altitude Azimuth Distance (km) Brightness Sun altitude
Exits shadow 22:05:27 19° 70° (ENE) 1,114 4.3 -19.6°
Drops below altitude 10° 22:07:13 10° 41° (NE) 1,556 5.4 -19.7°
Sets 22:09:35 0° 25° (NNE) 2,425 6.7 -19.9°
